Regional Weather Roundup
Issued by NWS

Home | Current Version | Previous Version | Graphics & Text | Print | Product List | Glossary On
Versions: 1 2 3 4 5 6 7 8 9 10 11 12 13 14 15 16 17 18 19 20 21 22 23 24 25 26 27 28 29 30 31 32 33 34 35 36 37 38 39 40 41 42 43 44 45 46 47 48 49 50
000
ASUS43 KIND 061359
RWRIN

WEATHER ROUNDUP FOR INDIANA
NATIONAL WEATHER SERVICE INDIANAPOLIS IN
900 AM EST FRI MAR 06 2015

NOTE: "FAIR" INDICATES FEW OR NO CLOUDS BELOW 12,000 FEET WITH NO
SIGNIFICANT WEATHER AND/OR OBSTRUCTIONS TO VISIBILITY.

* - STATION DOES NOT REPORT WEATHER SUCH AS PRECIPITATION OR FOG.

+ - STATION NOT QUALITY CONTROLLED BY THE NATIONAL WEATHER SERVICE.
    USE DATA WITH CAUTION...ESPECIALLY DEWPOINT AND RELATIVE
    HUMIDITY OBSERVATIONS.

INZ001>003-010>013-019-020-061500-
NORTHWEST INDIANA

CITY           SKY/WX    TMP DP  RH WIND       PRES   REMARKS
GARY /AIRPORT/ MOSUNNY    9  -2  61 S17       30.47S WCI -10
MONTICELLO +   SUNNY      3  -1  84 S5        30.50S WCI  -6
VALPARAISO     NOT AVBL

$$

LMZ046-743>745-061500-
SOUTHERN LAKE MICHIGAN

STATION/POSITION TIME  TEMP WIND        PRES
                       AIR  DIR/SP/G
                 (UTC) (F)  (DEG/KT/KT) (MB)
MICHIGAN CITY    1300    4  170/  9/ 12   N/A

$$

INZ004-005-014>016-021>024-061500-
NORTH CENTRAL INDIANA

CITY           SKY/WX    TMP DP  RH WIND       PRES   REMARKS
ELKHART        MOSUNNY    5  -2  72 S7        30.47F WCI  -7
GOSHEN         MOSUNNY    5  -1  76 S8        30.47S WCI  -8
SOUTH BEND     MOSUNNY    6  -1  73 S9        30.46F WCI  -8

$$

INZ006>009-017-018-025>027-061500-
NORTHEAST INDIANA

CITY           SKY/WX    TMP DP  RH WIND       PRES   REMARKS
ANGOLA *+      SUNNY      1  -2  85 CALM      30.46S
FORT WAYNE     PTSUNNY    3  -1  83 SW6       30.51R WCI  -8

$$

INZ028-029-035-036-043>045-051>053-061500-
WEST CENTRAL INDIANA

CITY           SKY/WX    TMP DP  RH WIND       PRES   REMARKS
GREENCASTLE +  MOSUNNY    3  -2  78 S3        30.53S
LAFAYETTE      MOSUNNY    4   1  88 S5        30.52S WCI  -5
TERRE HAUTE    SUNNY      4   2  91 CALM      30.56S

$$

INZ030>032-037>040-046>048-054>057-064-065-061500-
CENTRAL INDIANA

CITY           SKY/WX    TMP DP  RH WIND       PRES   REMARKS
ANDERSON       SUNNY      7   3  85 CALM      30.53
COLUMBUS       SUNNY     10   7  85 CALM      30.57R
GREENWOOD *+   SUNNY     10   1  67 S5        30.55R WCI   2
INDIANAPOLIS   PTSUNNY    9   2  73 S7        30.52R WCI  -2
-EAGLE CREEK   MOSUNNY    9   3  77 S5        30.53R WCI   1
KOKOMO *+        N/A    N/A N/A N/A MISG        N/A
MT COMFORT *+  MOSUNNY    7   0  72 S5        30.53R WCI  -2
SHELBYVILLE    MOSUNNY    8   4  83 SE3       30.54R

$$

INZ033-034-041-042-049-050-058-059-061500-
EAST CENTRAL INDIANA

CITY           SKY/WX    TMP DP  RH WIND       PRES   REMARKS
MUNCIE         MOSUNNY   10   2  69 S9        30.51S WCI  -3

$$

INZ060-061-067>069-081>083-085>088-061500-
SOUTHWEST INDIANA

CITY           SKY/WX    TMP DP  RH WIND       PRES   REMARKS
EVANSVILLE     SUNNY      7   4  87 CALM      30.60R
HUNTINGBURG *+ MOSUNNY    1   0  92 W5        30.58S WCI  -8

$$

INZ062-063-066-070>080-084-089>092-061500-
SOUTH CENTRAL AND SOUTHEAST INDIANA

CITY           SKY/WX    TMP DP  RH WIND       PRES   REMARKS
BLOOMINGTON    MOSUNNY   11   4  73 SE7       30.54R WCI   0
SEYMOUR +      MOSUNNY   12   5  73 CALM      30.59R

$$



USA.gov is the U.S. government's official web portal to all federal, state and local government web resources and services.